KLM1798 EHAM-EDDL

Flight info

Callsign KLM1798
Flight time N/A
Altitude 17000
Route ARNEM T196 TEBRO P62 PISAP PISAP1A
Aircraft E190/M-SDE3GILORVW/S

Departure

Time 2026-05-05 13:14
Airport Amsterdam Airport Schiphol (EHAM)

Arrival

Time N/A
Airport Düsseldorf Airport (EDDL)
Time Latitude Longitude Altitude Speed Heading
2026-05-05 12:41 52.30415 4.76120 -3 ft 0 kts 58°
2026-05-05 13:04 52.30413 4.76114 -3 ft 3 kts 58°
2026-05-05 13:04 52.30398 4.76077 -3 ft 4 kts 58°
2026-05-05 13:04 52.30390 4.76054 -3 ft 0 kts 58°
2026-05-05 13:06 52.30391 4.76062 -3 ft 1 kts 89°
2026-05-05 13:07 52.30363 4.76102 -3 ft 5 kts 160°
2026-05-05 13:07 52.30340 4.76119 -3 ft 5 kts 148°
2026-05-05 13:07 52.30292 4.76169 -3 ft 11 kts 148°
2026-05-05 13:07 52.30228 4.76238 -3 ft 11 kts 145°
2026-05-05 13:08 52.30194 4.76247 -3 ft 4 kts 218°
2026-05-05 13:08 52.30150 4.76147 -3 ft 21 kts 238°
2026-05-05 13:08 52.30075 4.75950 -3 ft 21 kts 238°
2026-05-05 13:08 52.29999 4.75753 -3 ft 21 kts 237°
2026-05-05 13:09 52.29929 4.75569 -3 ft 12 kts 238°
2026-05-05 13:09 52.29880 4.75441 -3 ft 14 kts 237°
2026-05-05 13:09 52.29834 4.75294 -3 ft 15 kts 262°
2026-05-05 13:09 52.29866 4.75151 -3 ft 13 kts 310°
2026-05-05 13:10 52.29932 4.75029 -3 ft 17 kts 310°
2026-05-05 13:10 52.30018 4.74868 -3 ft 19 kts 312°
2026-05-05 13:10 52.30110 4.74699 3 ft 18 kts 312°
2026-05-05 13:10 52.30199 4.74534 8 ft 21 kts 312°
2026-05-05 13:11 52.30298 4.74348 4 ft 23 kts 308°
2026-05-05 13:11 52.30410 4.74136 -3 ft 24 kts 311°
2026-05-05 13:11 52.30533 4.74062 -3 ft 19 kts 359°
2026-05-05 13:11 52.30602 4.73977 -3 ft 8 kts 279°
2026-05-05 13:12 52.30637 4.73907 -4 ft 10 kts 330°
2026-05-05 13:12 52.30703 4.73848 -4 ft 11 kts 333°
2026-05-05 13:12 52.30771 4.73810 -3 ft 10 kts 345°
2026-05-05 13:12 52.30841 4.73798 -3 ft 10 kts 356°
2026-05-05 13:13 52.30862 4.73799 -3 ft 0 kts
2026-05-05 13:13 52.30871 4.73800 -3 ft 2 kts
2026-05-05 13:13 52.30897 4.73802 -4 ft 10 kts
2026-05-05 13:14 52.31222 4.73832 -5 ft 86 kts
2026-05-05 13:14 52.32066 4.73912 15 ft 153 kts
2026-05-05 13:14 52.33191 4.74021 764 ft 170 kts
2026-05-05 13:14 52.34447 4.74166 1568 ft 187 kts
2026-05-05 13:15 52.35669 4.74251 1717 ft 163 kts
2026-05-05 13:15 52.36736 4.74395 1836 ft 153 kts 13°
2026-05-05 13:15 52.37698 4.75103 1556 ft 153 kts 40°
2026-05-05 13:15 52.38379 4.76446 1305 ft 152 kts 53°
2026-05-05 13:16 52.38965 4.77830 1077 ft 148 kts 54°
2026-05-05 13:16 52.39460 4.79307 1002 ft 141 kts 61°
2026-05-05 13:16 52.39850 4.80778 1123 ft 152 kts 64°
2026-05-05 13:16 52.40526 4.82059 944 ft 146 kts 36°
2026-05-05 13:17 52.41327 4.83029 1040 ft 144 kts 37°
2026-05-05 13:17 52.42048 4.84148 1173 ft 144 kts 61°
2026-05-05 13:17 52.42209 4.85854 1373 ft 152 kts 82°
2026-05-05 13:17 52.42292 4.87587 1568 ft 152 kts 81°
2026-05-05 13:18 52.42364 4.89310 1763 ft 152 kts 83°
2026-05-05 13:18 52.42394 4.91053 1988 ft 153 kts 84°
2026-05-05 13:18 52.42402 4.92786 2182 ft 153 kts 86°
2026-05-05 13:18 52.42403 4.94533 2368 ft 155 kts 86°
2026-05-05 13:19 52.42401 4.96309 2380 ft 158 kts 84°
2026-05-05 13:19 52.42345 4.98168 2280 ft 186 kts 104°
2026-05-05 13:19 52.41485 4.99991 3068 ft 213 kts 140°
2026-05-05 13:19 52.40347 5.01281 3833 ft 199 kts 143°
2026-05-05 13:20 52.39172 5.02632 4285 ft 214 kts 142°
2026-05-05 13:20 52.37917 5.04089 4756 ft 228 kts 143°
2026-05-05 13:20 52.36583 5.05638 5204 ft 242 kts 144°
2026-05-05 13:20 52.35199 5.07333 5643 ft 255 kts 135°
2026-05-05 13:21 52.34103 5.09692 6082 ft 267 kts 123°
2026-05-05 13:21 52.33151 5.12368 6507 ft 275 kts 120°
2026-05-05 13:21 52.32248 5.15136 6894 ft 276 kts 118°
2026-05-05 13:21 52.31423 5.17977 7270 ft 278 kts 113°
2026-05-05 13:22 52.30700 5.20921 7702 ft 280 kts 112°
2026-05-05 13:22 52.29987 5.23897 8137 ft 282 kts 111°
2026-05-05 13:22 52.29273 5.26893 8573 ft 285 kts 111°
2026-05-05 13:22 52.28551 5.29919 9002 ft 287 kts 111°
2026-05-05 13:23 52.27823 5.32970 9459 ft 290 kts 111°
2026-05-05 13:23 52.27087 5.36040 9896 ft 292 kts 111°
2026-05-05 13:23 52.26345 5.39144 10303 ft 297 kts 111°
2026-05-05 13:23 52.25581 5.42326 10723 ft 305 kts 111°
2026-05-05 13:24 52.24798 5.45586 11147 ft 312 kts 111°
2026-05-05 13:24 52.23995 5.48918 11591 ft 319 kts 111°
2026-05-05 13:24 52.23171 5.52326 12026 ft 326 kts 111°
2026-05-05 13:24 52.22334 5.55796 12463 ft 330 kts 111°
2026-05-05 13:25 52.21491 5.59281 12903 ft 331 kts 111°
2026-05-05 13:25 52.20642 5.62782 13332 ft 333 kts 111°
2026-05-05 13:25 52.19786 5.66310 13770 ft 335 kts 111°
2026-05-05 13:25 52.18923 5.69864 14083 ft 338 kts 111°